Regional Weather Roundup
Issued by NWS

Home | Current Version | Previous Version | Graphics & Text | Print | Product List | Glossary On
Versions: 1 2 3 4 5 6 7 8 9 10 11 12 13 14 15 16 17 18 19 20 21 22 23 24 25 26 27 28 29 30 31 32 33 34 35 36 37 38 39 40 41 42 43 44 45 46 47 48 49
000
ASUS45 KSLC 141510
RWRUT

UTAH REGIONAL WEATHER ROUNDUP
NATIONAL WEATHER SERVICE SALT LAKE CITY UT
900 AM MDT SUN SEP 14 2014

UTZ001>011-023>025-141600-

NORTHERN UTAH

CITY           SKY/WX    TMP DP  RH WIND       PRES   REMARKS
HILL AFB       PTSUNNY   63  36  36 E15       30.07R
LOGAN          SUNNY     54  44  69 CALM      30.08R
OGDEN          MOSUNNY   64  38  38 S10       30.05R
PROVO AIRPORT  MOSUNNY   61  39  44 E3        30.10S
SALT LAKE CITY MOSUNNY   70  38  31 CALM      30.03R
VERNAL         MOSUNNY   60  42  51 CALM      30.16S
WENDOVER       MOSUNNY   61  30  31 NE8       30.05R
HEBER CITY     MOSUNNY   50  43  76 CALM      30.16S
WEST JORDAN    SUNNY     70  36  28 S14       30.05S

$$

UTZ012>022-026-027-141600-

SOUTHERN UTAH

CITY           SKY/WX    TMP DP  RH WIND       PRES   REMARKS
BRYCE CANYON   SUNNY     55  39  54 W8        30.32S
CEDAR CITY     SUNNY     61  45  55 CALM      30.16S
MILFORD        MOSUNNY   61  39  44 S8        30.12R
MOAB/CYNLANDS  SUNNY     65  38  36 SE8       30.11R
PRICE          SUNNY     64  33  31 CALM      30.19R
ST GEORGE      MOSUNNY   70  41  35 SW3       30.03S
KANAB            N/A     61  39  44 N5        30.18S

$$

REGIONAL REPORTS     COLORADO/ARIZONA

CITY           SKY/WX    TMP DP  RH WIND       PRES   REMARKS
CRAIG, CO      SUNNY     51  40  65 W5        30.21F
GRAND JUNCTION SUNNY     62  37  39 SE12      30.16S
RIFLE          SUNNY     52  38  58 CALM      30.23F
MONTROSE       MOSUNNY   62  39  42 CALM      30.25R
CORTEZ         SUNNY     59  43  55 CALM      30.26S
PAGE, AZ       MOSUNNY   75  39  27 NW3       30.10S
GRAND CANYON   MOSUNNY   61  49  64 CALM      30.26S
KINGMAN        SUNNY     77  56  48 CALM      30.02S
FLAGSTAFF      SUNNY     62  51  67 CALM      30.28S

$$

REGIONAL REPORTS    NEVADA/IDAHO/WYOMING

CITY           SKY/WX    TMP DP  RH WIND       PRES   REMARKS
LAS VEGAS, NV  MOSUNNY   81  46  29 SW3       29.88R
ELY            MOSUNNY   61  33  35 SE8       30.18S
ELKO           MOSUNNY   51  25  36 NE6       30.11R
POCATELLO, ID  SUNNY     51  36  56 VRB3      30.08R
BURLEY         SUNNY     53  40  61 CALM      30.04R
EVANSTON, WY   MOSUNNY   57  31  37 SW8       30.21R
ROCK SPRINGS   SUNNY     56  26  31 E3        30.17S

$$



USA.gov is the U.S. government's official web portal to all federal, state and local government web resources and services.